TECHEDSAT 8 (44032 NORAD) Tracking and Keplerian Element Data

This shows tracking and keplerian element data for the satellite.

Feedback or suggestion? Click here.




ElementValue
Catalog44032
NameTECHEDSAT 8
Epoch Orbit2651
Epoch Day201.50133342
Epoch Year2019
RAAN189.5062
Inclination51.6367
Eccentricity0.0002572
Argument of Perigee283.2902
Mean Anonmoly76.7805
Mean Motion15.60674746
Decay Rate0.00013387
L11 44032U 98067PY 19201.50133342 .00013387 00000-0 16415-3 0 9999
L22 44032 51.6367 189.5062 0002572 283.2902 76.7805 15.60674746 26519

Live tracking and technical data element details for TECHEDSAT 8 (NORAD 44032). TECHEDSAT 8 can be tracked NOW for your location showing map with azimuth and elevation plus other details from your city location.

Track the satellite on the map from your city or location and see movement details for azimuth, elevation, latitude, longitude, range, height, and movement on the map or in text.







IsCatalogInMostPopularTable: catalog: 44032, numindb: 77
Update: records affected: 1



GetName: 44032 TECHEDSAT 8

Hit Count: updated at: Sun, 21 Jul 2019 14:41:19 GMT